Tracking 20083 objects as of 9-Dec-2019
HD Live streaming from Space Station
objects crossing your sky now

COSMOS 2251 DEB

Track COSMOS 2251 DEB now!
10-day predictions


NORAD ID: 38478
Int'l Code: 1993-036BTN
Perigee: 569.9 km
Apogee: 630.8 km
Inclination: 74.0 °
Period: 96.5 minutes
Semi major axis: 6971 km
RCS: 0.0048 m2 (small)
Launch date: June 16, 1993
Source: Commonwealth of Independent States (former USSR) (CIS)
Launch site: PLESETSK MISSILE AND SPACE COMPLEX (PKMTR)

Note: This is SATELLITE DEBRIS
aabbcc
Your satellite tracking list
Your tracking list is empty




NASA's NSSDC Master Catalog

Two Line Element Set (TLE):
1 38478U 93036BTN 19342.48077157  .00001676  00000-0  16832-3 0  9992
2 38478  74.0120 253.9497 0043701 209.2705 150.6029 14.91522538499235
Source of the keplerian elements: AFSPC